STARLINK-11554, 62833

Orbit data source: Space-Track

STARLINK-11554, 62833 is a payload satellite owned by SpaceX/Seattle (US) in LEO that was launched on Mon, 27 Jan 2025 UTC via an FALCON 9 launch vehicle from the Air Force Eastern Test Range (AFETR). Payload-class satellites include a variety of spacecraft equipped with specific instruments for various scientific and technological missions. These include communications satellites like Starlink; space stations such as the ISS; scientific satellites like the Hubble; Earth observation satellites from companies like Planet Labs, Umbra, and HawkEye 360; GPS; miniature CubeSats for education and research; and military/defense satellites.

Loading next visibility...
Identifier
62833, 2025-019E
Orbit
LEO
Last TLE update
23 hours ago
Origin
Manufacturer
SpaceX/Seattle
Mission
Operational Commercial Communications
Bus & Motor
STARLINK V2M, Unknown motor
Mass
730 kg wet, ~700 kg dry
Launch date (UTC)
2025-01-27 (5 months ago)
Launch vehicle
FALCON 9
Launch site
Air Force Eastern Test Range (AFETR)
Object type
Payload
Rocket body
Debris
Shape & HBR
Box + 2 Pan, 29 m
Radar Cross Section
36.964 m², Large (>1 m²)

Expand to show TLE details & history

TLE from 23 hours ago
0 STARLINK-11554
1 62833U 25019E   25182.89430921  .00157231  00000-0  12015-2 0  9993
2 62833  42.9998  18.0089 0002660 263.8649  96.1916 15.70923187 25375
Epoch: 2025-07-01T21:27Z
TLE epoch observation values (Epoch: 2025-07-01T21:27:48.315Z)
Latitude
-0.00001°
Longitude
135.87437°
Altitude
356.222 km
Speed
7.697 km/s
True Right ascension
01h 12m 02s
True Declination
0° 00' 00"
Sunlit
Object was in daylight at epoch
Visualization orbit readout
Latitude
7.80251°
Longitude
138.5115°
Altitude
354.83 km
Speed
7.699 km/s
Apparent Right ascension
23h 13m 52s
Apparent Declination
-19° 19' 23"
Sunlit
Object is in daylight
Visualization observer readout
Local Sidereal Time
08:07:55
Azimuth
283.405° WNW
Elevation
-45.288°
Doppler factor
1
Orbital elements
Apogee altitude
360.031 km
Perigee altitude
356.447 km
Semi-major axis
6,736.376 km
Eccentricity
0.00027
Inclination
42.9998°
RAAN
18.0089°
Arg. of periapsis
263.8649°
True anomaly
Unknown
Mean anomaly
96.1916°
Eccentric anomaly
Unknown
Mean motion
3.92558 °/min
Orbital period
91.71 mins
BSTAR
0.0012015
Loading maneuver chart data...
Loading SW <> Apogee altitude chart data...
Loading historical data...
Loading historical data...
Loading historical data...
Loading historical data...
Loading historical data...
Loading historical data...
Loading historical data...

STARLINK-11554 Visibility forecast

Observer location: undefined°, undefined°

Span
Click to sort rows by Start time (UTC) header in descending order
Start Az.
Max El. time (UTC)
Max El. Az.
Max El.
End time (UTC)
End Az.
4 mins2025-07-02 20:46:53.413Z288.717° WNW2025-07-02 20:48:53.413Z48.739° ENE44.983°2025-07-02 20:50:53.413Z107.991° ESE
5 mins2025-07-03 16:24:53.413Z235.256° WSW2025-07-03 16:26:53.413Z200.758° SSW37.088°2025-07-03 16:29:53.413Z78.035° E
4 mins2025-07-03 18:01:53.413Z288.062° WNW2025-07-03 18:03:53.413Z21.855° NNE34.244°2025-07-03 18:05:53.413Z66.882° ENE
|